Weather History for Lamoni, IA

Change the Weather History Date:

Thursday, January 16, 2014

  Actual Average Record
Temperature  
Mean Temperature 26 °F 24 °F  
Max Temperature 40 °F 33 °F 63 °F (1990)
Min Temperature 11 °F 15 °F -20 °F (1977)
Degree Days  
Heating Degree Days 39 41  
Month to date heating degree days 753 656  
Since 1 July heating degree days 3299 3085  
Cooling Degree Days 0 0  
Month to date cooling degree days 0 0  
Year to date cooling degree days 0 0  
Moisture  
Dew Point 20 °F    
Average Humidity 67    
Maximum Humidity 85    
Minimum Humidity 48    
Precipitation  
Precipitation 0.02 in 0.03 in 0.77 in (1980)
Month to date precipitation 0.25 0.32  
Sea Level Pressure  
Sea Level Pressure 29.80 in    
Wind  
Wind Speed 19 mph (WNW)    
Max Wind Speed 43 mph    
Max Gust Speed 52 mph    
Visibility 6 miles    
Events Fog , Snow    
T = Trace of Precipitation, MM = Missing Value Source: NWS Daily Summary

Daily Weather History Graph

Daily Weather History Graph

Search for Another Location

Airport:

Trip Planner

Search our weather history database for the weather conditions in past years. The results will help you decide how hot, cold, wet, or windy it might be!

Date:

Astronomy

Jan. 16, 2014 Rise Set
Actual Time 7:36 AM CST 5:14 PM CST
Civil Twilight 7:06 AM CST 5:44 PM CST
Nautical Twilight 6:33 AM CST 6:18 PM CST
Astronomical Twilight 6:00 AM CST 6:50 PM CST
Moon 6:07 PM CST (1/16) 7:30 AM CST (1/16)
Length of Visible Light 10h 37m
Length of Day
9h 37m
Full, 100% of the Moon is Illuminated
Jan 16
Full
Jan 23
Last Quarter
Jan 30
New
Feb 6
First Quarter
Feb 14
Full

Hourly Weather History & Observations

Time (CST) Temp. Windchill Dew Point Humidity Pressure Visibility Wind Dir Wind Speed Gust Speed Precip Events Conditions
12:53 AM 28.9 °F 18.6 °F 19.9 °F 69% 29.76 in 10.0 mi SSW 12.7 mph - N/A   Clear
1:53 AM 33.1 °F 22.6 °F 23.0 °F 66% 29.75 in 10.0 mi WSW 16.1 mph - N/A   Overcast
2:53 AM 34.0 °F 24.2 °F 25.0 °F 70% 29.70 in 10.0 mi WSW 15.0 mph - N/A   Partly Cloudy
3:53 AM 36.0 °F 26.7 °F 26.1 °F 67% 29.69 in 10.0 mi West 15.0 mph - N/A   Mostly Cloudy
4:53 AM 35.1 °F 25.5 °F 26.1 °F 70% 29.69 in 10.0 mi West 15.0 mph - N/A   Clear
5:53 AM 35.1 °F 27.4 °F 24.1 °F 64% 29.69 in 10.0 mi West 10.4 mph - N/A   Clear
6:53 AM 35.1 °F 25.9 °F 24.1 °F 64% 29.70 in 10.0 mi West 13.8 mph - N/A   Overcast
7:53 AM 36.0 °F 25.6 °F 23.0 °F 59% 29.72 in 10.0 mi WNW 18.4 mph 24.2 mph N/A   Mostly Cloudy
8:53 AM 37.9 °F 27.9 °F 25.0 °F 60% 29.73 in 10.0 mi WNW 19.6 mph 28.8 mph N/A   Scattered Clouds
9:53 AM 39.9 °F 28.8 °F 21.9 °F 49% 29.74 in 10.0 mi NW 27.6 mph 36.8 mph N/A   Partly Cloudy
10:53 AM 35.1 °F 23.3 °F 24.1 °F 64% 29.78 in 6.0 mi NNW 23.0 mph 34.5 mph 0.00 in Snow Light Snow
11:08 AM 33.1 °F 20.9 °F 26.1 °F 75% 29.75 in 1.8 mi NW 21.9 mph 31.1 mph 0.00 in Snow Light Snow
11:17 AM 33.1 °F 21.2 °F 27.0 °F 78% 29.75 in 3.0 mi NW 20.7 mph 29.9 mph 0.00 in Snow Light Snow
11:21 AM 33.1 °F 21.5 °F 27.0 °F 78% 29.75 in 2.5 mi NW 19.6 mph 29.9 mph 0.00 in Snow Light Snow
11:38 AM 32.0 °F 20.5 °F 27.0 °F 82% 29.74 in 3.0 mi NW 18.4 mph - 0.00 in Snow Light Snow
11:42 AM 32.0 °F 20.5 °F 27.0 °F 82% 29.74 in 1.5 mi NW 18.4 mph - 0.00 in Snow Light Snow
11:49 AM 32.0 °F 21.2 °F 28.4 °F 87% 29.74 in 0.8 mi NW 16.1 mph 24.2 mph 0.00 in Snow Light Snow
11:51 AM 32.0 °F 21.6 °F 28.4 °F 87% 29.74 in 1.0 mi NW 15.0 mph - 0.00 in Snow Light Snow
11:53 AM 32.0 °F 21.2 °F 28.9 °F 88% 29.78 in 1.8 mi NW 16.1 mph - 0.00 in Snow Light Snow
11:57 AM 33.1 °F 22.2 °F 28.0 °F 82% 29.74 in 8.0 mi NW 17.3 mph - 0.00 in Snow Light Snow
12:10 PM 34.0 °F 23.8 °F 28.9 °F 82% 29.74 in 10.0 mi WNW 16.1 mph - 0.00 in   Overcast
12:53 PM 34.0 °F 24.6 °F 27.0 °F 75% 29.76 in 9.0 mi NW 13.8 mph - 0.00 in   Overcast
1:08 PM 33.1 °F 23.0 °F 28.0 °F 82% 29.72 in 2.0 mi NW 15.0 mph - 0.00 in Snow Light Snow
1:14 PM 34.0 °F 24.6 °F 28.0 °F 79% 29.72 in 1.8 mi NW 13.8 mph - 0.00 in Snow Light Snow
1:17 PM 33.1 °F 23.9 °F 28.0 °F 82% 29.72 in 3.0 mi NW 12.7 mph - 0.00 in Snow Light Snow
1:44 PM 34.0 °F 28.8 °F 28.9 °F 82% 29.72 in 2.5 mi WNW 5.8 mph - 0.00 in Snow Light Snow
1:50 PM 33.8 °F 27.7 °F 30.2 °F 87% 29.72 in 3.0 mi WNW 6.9 mph - 0.00 in Snow Light Snow
1:53 PM 34.0 °F 28.8 °F 30.0 °F 85% 29.75 in 6.0 mi WNW 5.8 mph - 0.00 in Snow Light Snow
2:47 PM 35.6 °F 25.9 °F 28.4 °F 75% 29.72 in 1.5 mi WNW 16.1 mph - 0.00 in Snow Light Snow
2:53 PM 33.1 °F 24.9 °F 30.0 °F 89% 29.75 in 0.5 mi WNW 10.4 mph - 0.00 in Fog , Snow Snow
3:00 PM 35.1 °F 26.9 °F 30.9 °F 85% 29.71 in 2.5 mi West 11.5 mph - 0.01 in Snow Light Snow
3:07 PM 36.0 °F 27.1 °F 30.9 °F 82% 29.71 in 9.0 mi West 13.8 mph - 0.01 in   Overcast
3:21 PM 34.0 °F 21.0 °F 28.0 °F 79% 29.72 in 1.8 mi WNW 26.5 mph 42.6 mph 0.01 in Snow Light Snow
3:31 PM 33.1 °F 21.9 °F 28.9 °F 85% 29.71 in 3.0 mi West 18.4 mph 29.9 mph 0.01 in Snow Light Snow
3:53 PM 35.1 °F 25.2 °F 28.0 °F 76% 29.73 in 10.0 mi West 16.1 mph - 0.01 in   Mostly Cloudy
4:04 PM 34.0 °F 19.9 °F 27.0 °F 75% 29.73 in 0.5 mi WNW 32.2 mph 51.8 mph 0.00 in Snow Snow
4:08 PM 32.0 °F 16.7 °F 28.0 °F 85% 29.74 in 0.2 mi WNW 34.5 mph 51.8 mph 0.00 in Fog , Snow Heavy Snow
4:19 PM 32.0 °F 19.2 °F 28.0 °F 85% 29.74 in 1.0 mi WNW 23.0 mph 35.7 mph 0.00 in Snow Light Snow
4:27 PM 32.0 °F 18.4 °F 27.0 °F 82% 29.74 in 9.0 mi WNW 26.5 mph 35.7 mph 0.00 in   Mostly Cloudy
4:38 PM 32.0 °F 15.6 °F 23.0 °F 69% 29.75 in 10.0 mi NW 41.4 mph 52.9 mph 0.00 in   Overcast
4:53 PM 28.9 °F 12.5 °F 16.0 °F 58% 29.79 in 10.0 mi WNW 34.5 mph 48.3 mph 0.00 in   Mostly Cloudy
5:53 PM 19.9 °F 2.8 °F 12.9 °F 74% 29.89 in 6.0 mi NNW 24.2 mph 41.4 mph 0.01 in Snow Light Snow
6:13 PM 18.0 °F -2.8 °F 8.1 °F 65% 29.87 in 10.0 mi NW 35.7 mph 50.6 mph 0.00 in   Overcast
6:53 PM 14.0 °F -8.3 °F 1.9 °F 59% 29.95 in 10.0 mi NW 35.7 mph 51.8 mph 0.00 in   Mostly Cloudy
7:05 PM 14.0 °F -6.5 °F 3.9 °F 64% 29.90 in 10.0 mi NW 28.8 mph 44.9 mph N/A   Mostly Cloudy
7:19 PM 12.9 °F -6.5 °F 1.9 °F 62% 29.91 in 10.0 mi NNW 24.2 mph 35.7 mph N/A   Mostly Cloudy
7:53 PM 12.9 °F -6.1 °F 3.0 °F 65% 29.97 in 10.0 mi NW 23.0 mph 34.5 mph N/A   Mostly Cloudy
8:53 PM 10.9 °F -8.3 °F 3.0 °F 70% 29.99 in 9.0 mi NW 21.9 mph 26.5 mph N/A   Mostly Cloudy
9:12 PM 10.9 °F -9.6 °F 5.0 °F 77% 29.94 in 4.0 mi NW 25.3 mph 32.2 mph 0.00 in Snow Light Snow
9:28 PM 10.9 °F -9.6 °F 1.0 °F 64% 29.95 in 10.0 mi NNW 25.3 mph 34.5 mph 0.00 in   Mostly Cloudy
9:53 PM 10.9 °F -7.0 °F 3.0 °F 70% 30.01 in 4.0 mi NNW 18.4 mph 32.2 mph 0.00 in Snow Light Snow
10:53 PM 10.9 °F -6.5 °F 3.0 °F 70% 30.01 in 10.0 mi NW 17.3 mph 24.2 mph 0.00 in   Overcast
11:10 PM 10.9 °F -4.7 °F 3.9 °F 73% 29.97 in 2.5 mi NW 13.8 mph 21.9 mph 0.00 in Snow Light Snow
11:18 PM 10.9 °F -4.7 °F 6.1 °F 81% 29.97 in 1.0 mi NW 13.8 mph - 0.00 in Snow Light Snow
11:25 PM 10.9 °F -5.9 °F 7.0 °F 84% 29.97 in 1.0 mi NW 16.1 mph 25.3 mph 0.00 in Snow Light Snow
11:33 PM 10.9 °F -6.5 °F 3.9 °F 73% 29.96 in 3.0 mi NNW 17.3 mph 27.6 mph 0.00 in Snow Light Snow
11:40 PM 10.9 °F -7.9 °F 3.9 °F 73% 29.96 in 6.0 mi NW 20.7 mph 25.3 mph 0.00 in Snow Light Snow
11:53 PM 10.9 °F -6.5 °F 5.0 °F 77% 30.01 in 5.0 mi NW 17.3 mph 26.5 mph 0.00 in Snow Light Snow